Starlink 32907

operational
NORAD ID: 63095 Int'l Des: 2025-037 Owner: SPXS Country: US Constellation: starlink
LEOCIRCULAR

About Starlink 32907

Description loading...

Live Position

Loading 3D Globe...

Upcoming Passes

Altitude History

Altitude vs Time

uPlot chart will show altitude changes over time

Two-Line Element Set

1 63095U 25037U 25305.46458495 .00004999 00000-0 42637-3 0 9996
2 63095 70.0011 317.8161 0003095 269.6924 90.3880 14.98336591 39342
Epoch: Nov 1, 2025 • Age: 14 hours

Current Status

Altitude 591.9 km
Velocity 7.56 km/s
Sub-Earth Point -57.77°S, 139.55°W
Launch Date Feb 23, 2025
Age 0.6 years
Type internet

Technical Details

Classification Payload
Mass 730.00 kg
Dry Mass 700.00 kg
Total Mass 730.00 kg
Length 0.30 m
Diameter 4.10 m
Span 29.00 m
Shape Box + pan
Manufacturer SPXS
Bus Type Starlink V2M
Phase Status In Orbit
Owner/State SPXS/US

Large Constellations

Loading constellations...